Flag for Germany Weather past 2 weeks in Brandenburg an der Havel, Brandenburg, Germany

Now
35 °F

Light rain. Low clouds.


Feels Like: 30 °F
Forecast: 33 / 39 °F
Wind: 6 mph from Southwest

Location: Potsdam

Current Time: Jan 26, 2015 at 9:45:31 PM

Latest Report: Jan 26, 2015 at 9:00 PM


Visibility: 2 mi

Pressure: 29.88 "Hg

Humidity: 98%

Dew point: 34 °F

Location of Brandenburg an der HavelLocation

Historic Weather in Brandenburg an der Havel — Graph

°F

Brandenburg an der Havel temperature yesterday

Maximum temperature yesterday: 34 °F (at 7:00 PM)
Minimum temperature yesterday: 31 °F (at 8:00 AM)
Average temperature yesterday: 33 °F

Past Weeks' High & Low Weather Summary

 TemperatureHumidityPressure
High53 °F (Jan 13, 2:00 PM)100% (Jan 20, 8:00 PM)30.32 "Hg (Jan 20, 8:00 PM)
Low25 °F (Jan 19, 9:00 AM)57% (Jan 13, 7:00 PM)29.58 "Hg (Jan 15, 8:00 PM)
Average36 °F89%29.96 "Hg
* Reported Jan 11 9:00 PM — Jan 26 9:00 PM, Brandenburg an der Havel, Weather by CustomWeather, © 2014

Note: Actual official high and low records may vary slightly from our data, if they occured in-between our weather recording intervals... More about our weather records

Advertising

Brandenburg an der Havel weather history for previous 24 hours

 ConditionsComfort  
Time TempWeatherWind HumidityBarometerVisibility
9:00 PM
Jan 26
35 °FLight rain. Low clouds.6 mph98%29.88 "Hg2 mi
8:00 PM35 °FLight rain. Low clouds.6 mph97%29.90 "Hg4 mi
7:00 PM36 °FLight rain. Low clouds.7 mph96%29.93 "Hg14 mi
6:00 PM37 °FLight rain. Overcast.6 mph90%29.96 "Hg12 mi
5:00 PM38 °FOvercast.7 mph84%29.98 "Hg17 mi
4:00 PM39 °FOvercast.6 mph83%30.02 "Hg14 mi
3:00 PM40 °FFog.5 mph82%30.04 "Hg3 mi
2:00 PM39 °FFog.5 mph85%30.07 "Hg4 mi
1:00 PM38 °FFog.5 mph86%30.11 "Hg2 mi
12:00 PM38 °FFog.6 mph88%30.15 "Hg3 mi
11:00 AM37 °FFog.5 mph92%30.18 "Hg3 mi
10:00 AM35 °FFog.3 mph97%30.20 "Hg2 mi
9:00 AM35 °FFog.3 mph98%30.23 "Hg2 mi
8:00 AM35 °FFog.5 mph99%30.23 "Hg2 mi
7:00 AM34 °FFog.5 mph98%30.24 "Hg4 mi
6:00 AM34 °FLow clouds.5 mph98%30.25 "Hg5 mi
5:00 AM33 °FLow clouds.3 mph98%30.26 "Hg6 mi
4:00 AM34 °FOvercast.3 mph98%30.27 "Hg6 mi
3:00 AM33 °FLow clouds.2 mph98%30.28 "Hg5 mi
2:00 AM33 °FOvercast.2 mph98%30.29 "Hg5 mi
1:00 AM33 °FLow clouds.2 mph99%30.30 "Hg4 mi
12:00 AM33 °FLow clouds.2 mph98%30.32 "Hg4 mi
11:00 PM
Jan 25
34 °FFog.2 mph98%30.32 "Hg4 mi
10:00 PM34 °FLow clouds.2 mph98%30.32 "Hg4 mi
9:00 PM34 °FLow clouds.3 mph98%30.32 "Hg4 mi
Weather by CustomWeather, © 2014

See weather overviewHow to use our weather pages